Flag for Germany Weather past 2 weeks in Cottbus, Brandenburg, Germany

Now
92 °F

Sunny.


Feels Like: 89 °F
Forecast: 64 / 74 °F
Wind: 5 mph from South

Location: Cottbus

Current Time: Jul 7, 2015 at 5:46:01 PM

Latest Report: Jul 7, 2015 at 5:00 PM


Visibility: 25 mi

Pressure: 29.78 "Hg

Humidity: 22%

Dew point: 48 °F

Location of CottbusLocation

Historic Weather in Cottbus — Graph

°F

Cottbus temperature yesterday

Maximum temperature yesterday: 83 °F (at 12:00 AM)
Minimum temperature yesterday: 62 °F (at 11:00 PM)
Average temperature yesterday: 73 °F

Past Weeks' High & Low Weather Summary

 TemperatureHumidityPressure
High98 °F (Jul 4, 5:00 PM)100% (Jun 23, 5:00 AM)30.28 "Hg (Jun 23, 5:00 AM)
Low45 °F (Jun 25, 4:00 AM)21% (Jul 7, 4:00 PM)29.64 "Hg (Jun 23, 7:00 AM)
Average68 °F65%30.08 "Hg
* Reported Jun 22 4:00 PM — Jul 7 4:00 PM, Cottbus, Weather by CustomWeather, © 2015

Note: Actual official high and low records may vary slightly from our data, if they occured in-between our weather recording intervals... More about our weather records

Advertising

Cottbus weather history for previous 24 hours

 ConditionsComfort  
Time TempWeatherWind HumidityBarometerVisibility
4:00 PM
Tue, Jul 7
92 °FScattered clouds.3 mph21%29.82 "Hg28 mi
3:00 PM90 °FPassing clouds.3 mph22%29.85 "Hg28 mi
2:00 PM88 °FSunny.3 mph25%29.88 "Hg28 mi
1:00 PM86 °FSunny.2 mph28%29.92 "Hg28 mi
12:00 PM82 °FSunny.2 mph37%29.94 "Hg22 mi
11:00 AM80 °FSunny.2 mph38%29.97 "Hg25 mi
10:00 AM77 °FSunny.1 mph45%29.99 "Hg19 mi
9:00 AM74 °FSunny.1 mph49%30.01 "Hg22 mi
8:00 AM69 °FSunny.1 mph61%30.02 "Hg17 mi
7:00 AM65 °FSunny.1 mph72%30.04 "Hg16 mi
6:00 AM55 °FSunny.No wind95%30.05 "Hg11 mi
5:00 AM53 °FSunny.No wind97%30.05 "Hg11 mi
4:00 AM54 °FClear.1 mph95%30.06 "Hg10 mi
3:00 AM55 °FClear.1 mph93%30.08 "Hg11 mi
2:00 AM56 °FClear.1 mph91%30.08 "Hg14 mi
1:00 AM58 °FClear.1 mph88%30.09 "Hg19 mi
12:00 AM59 °FPassing clouds.1 mph85%30.09 "Hg19 mi
11:00 PM
Mon, Jul 6
62 °FHaze.1 mph81%30.09 "Hg16 mi
10:00 PM65 °FClear.1 mph68%30.09 "Hg22 mi
9:00 PM73 °FSunny.1 mph48%30.08 "Hg34 mi
8:00 PM77 °FSunny.2 mph37%30.07 "Hg40 mi
7:00 PM78 °FSunny.3 mph34%30.07 "Hg28 mi
6:00 PM79 °FSunny.5 mph33%30.08 "Hg40 mi
5:00 PM78 °FScattered clouds.5 mph37%30.10 "Hg31 mi
Weather by CustomWeather, © 2015

See weather overviewHow to use our weather pages